Year,Month,Day,Hour,Minute,Value (Times are PST for temperature in C)
2014,12,04,00,00,-0.30
2014,12,04,00,01,-0.30
2014,12,04,00,02,-0.30
2014,12,04,00,03,-0.30
2014,12,04,00,04,-0.30
2014,12,04,00,05,-0.30
2014,12,04,00,06,-0.30
2014,12,04,00,07,-0.30
2014,12,04,00,08,-0.30
2014,12,04,00,09,-0.30
2014,12,04,00,10,-0.30
2014,12,04,00,11,-0.30
2014,12,04,00,12,-0.30
2014,12,04,00,13,-0.30
2014,12,04,00,14,-0.30
2014,12,04,00,15,-0.30
2014,12,04,00,16,-0.30
2014,12,04,00,17,-0.30
2014,12,04,00,18,-0.30
2014,12,04,00,19,-0.30
2014,12,04,00,20,-0.30
2014,12,04,00,21,-0.30
2014,12,04,00,22,-0.30
2014,12,04,00,23,-0.30
2014,12,04,00,24,-0.30
2014,12,04,00,25,-0.30
2014,12,04,00,26,-0.30
2014,12,04,00,27,-0.30
2014,12,04,00,28,-0.20
2014,12,04,00,29,-0.20
2014,12,04,00,30,-0.10
2014,12,04,00,31,-0.10
2014,12,04,00,32,0.00
2014,12,04,00,33,0.10
2014,12,04,00,34,0.10
2014,12,04,00,35,0.10
2014,12,04,00,36,0.10
2014,12,04,00,37,0.10
2014,12,04,00,38,0.20
2014,12,04,00,39,0.20
2014,12,04,00,40,0.20
2014,12,04,00,41,0.20
2014,12,04,00,42,0.20
2014,12,04,00,43,0.20
2014,12,04,00,44,0.20
2014,12,04,00,45,0.10
2014,12,04,00,46,0.10
2014,12,04,00,47,0.10
2014,12,04,00,48,0.10
2014,12,04,00,49,0.10
2014,12,04,00,50,0.10
2014,12,04,00,51,0.00
2014,12,04,00,52,0.00
2014,12,04,00,53,0.00
2014,12,04,00,54,-0.10
2014,12,04,00,55,-0.10
2014,12,04,00,56,-0.10
2014,12,04,00,57,-0.10
2014,12,04,00,58,-0.20
2014,12,04,00,59,-0.20
2014,12,04,01,00,-0.20
2014,12,04,01,01,-0.20
2014,12,04,01,02,-0.20
2014,12,04,01,03,-0.30
2014,12,04,01,04,-0.30
2014,12,04,01,05,-0.30
2014,12,04,01,06,-0.30
2014,12,04,01,07,-0.40
2014,12,04,01,08,-0.40
2014,12,04,01,09,-0.40
2014,12,04,01,10,-0.40
2014,12,04,01,11,-0.40
2014,12,04,01,12,-0.50
2014,12,04,01,13,-0.50
2014,12,04,01,14,-0.50
2014,12,04,01,15,-0.60
2014,12,04,01,16,-0.60
2014,12,04,01,17,-0.60
2014,12,04,01,18,-0.60
2014,12,04,01,19,-0.60
2014,12,04,01,20,-0.70
2014,12,04,01,21,-0.70
2014,12,04,01,22,-0.70
2014,12,04,01,23,-0.70
2014,12,04,01,24,-0.70
2014,12,04,01,25,-0.70
2014,12,04,01,26,-0.70
2014,12,04,01,27,-0.80
2014,12,04,01,28,-0.80
2014,12,04,01,29,-0.80
2014,12,04,01,30,-0.80
2014,12,04,01,31,-0.80
2014,12,04,01,32,-0.80
2014,12,04,01,33,-0.80
2014,12,04,01,34,-0.80
2014,12,04,01,35,-0.80
2014,12,04,01,36,-0.80
2014,12,04,01,37,-0.80
2014,12,04,01,38,-0.80
2014,12,04,01,39,-0.80
2014,12,04,01,40,-0.80
2014,12,04,01,41,-0.80
2014,12,04,01,42,-0.90
2014,12,04,01,43,-0.90
2014,12,04,01,44,-0.90
2014,12,04,01,45,-0.90
2014,12,04,01,46,-0.90
2014,12,04,01,47,-0.90
2014,12,04,01,48,-0.80
2014,12,04,01,49,-0.80
2014,12,04,01,50,-0.80
2014,12,04,01,51,-0.80
2014,12,04,01,52,-0.80
2014,12,04,01,53,-0.80
2014,12,04,01,54,-0.80
2014,12,04,01,55,-0.80
2014,12,04,01,56,-0.80
2014,12,04,01,57,-0.80
2014,12,04,01,58,-0.80
2014,12,04,01,59,-0.80
2014,12,04,02,00,-0.80
2014,12,04,02,01,-0.80
2014,12,04,02,02,-0.80
2014,12,04,02,03,-0.80
2014,12,04,02,04,-0.80
2014,12,04,02,05,-0.80
2014,12,04,02,06,-0.80
2014,12,04,02,07,-0.80
2014,12,04,02,08,-0.80
2014,12,04,02,09,-0.90
2014,12,04,02,10,-0.80
2014,12,04,02,11,-0.80
2014,12,04,02,12,-0.80
2014,12,04,02,13,-0.80
2014,12,04,02,14,-0.80
2014,12,04,02,15,-0.70
2014,12,04,02,16,-0.70
2014,12,04,02,17,-0.70
2014,12,04,02,18,-0.70
2014,12,04,02,19,-0.70
2014,12,04,02,20,-0.70
2014,12,04,02,21,-0.70
2014,12,04,02,22,-0.70
2014,12,04,02,23,-0.70
2014,12,04,02,24,-0.70
2014,12,04,02,25,-0.70
2014,12,04,02,26,-0.70
2014,12,04,02,27,-0.80
2014,12,04,02,28,-0.80
2014,12,04,02,29,-0.80
2014,12,04,02,30,-0.80
2014,12,04,02,31,-0.80
2014,12,04,02,32,-0.80
2014,12,04,02,33,-0.90
2014,12,04,02,34,-0.90
2014,12,04,02,35,-0.90
2014,12,04,02,36,-0.90
2014,12,04,02,37,-0.90
2014,12,04,02,38,-0.90
2014,12,04,02,39,-0.90
2014,12,04,02,40,-0.90
2014,12,04,02,41,-0.90
2014,12,04,02,42,-0.90
2014,12,04,02,43,-1.00
2014,12,04,02,44,-1.00
2014,12,04,02,45,-1.00
2014,12,04,02,46,-1.00
2014,12,04,02,47,-1.00
2014,12,04,02,48,-1.10
2014,12,04,02,49,-1.10
2014,12,04,02,50,-1.10
2014,12,04,02,51,-1.10
2014,12,04,02,52,-1.10
2014,12,04,02,53,-1.10
2014,12,04,02,54,-1.10
2014,12,04,02,55,-1.10
2014,12,04,02,56,-1.10
2014,12,04,02,57,-1.10
2014,12,04,02,58,-1.10
2014,12,04,02,59,-1.10
2014,12,04,03,00,-1.10
2014,12,04,03,01,-1.10
2014,12,04,03,02,-1.10
2014,12,04,03,03,-1.20
2014,12,04,03,04,-1.20
2014,12,04,03,05,-1.20
2014,12,04,03,06,-1.20
2014,12,04,03,07,-1.20
2014,12,04,03,08,-1.20
2014,12,04,03,09,-1.20
2014,12,04,03,10,-1.20
2014,12,04,03,11,-1.20
2014,12,04,03,12,-1.20
2014,12,04,03,13,-1.20
2014,12,04,03,14,-1.20
2014,12,04,03,15,-1.20
2014,12,04,03,16,-1.20
2014,12,04,03,17,-1.30
2014,12,04,03,18,-1.30
2014,12,04,03,19,-1.30
2014,12,04,03,20,-1.30
2014,12,04,03,21,-1.30
2014,12,04,03,22,-1.30
2014,12,04,03,23,-1.30
2014,12,04,03,24,-1.40
2014,12,04,03,25,-1.40
2014,12,04,03,26,-1.40
2014,12,04,03,27,-1.40
2014,12,04,03,28,-1.40
2014,12,04,03,29,-1.40
2014,12,04,03,30,-1.40
2014,12,04,03,31,-1.40
2014,12,04,03,32,-1.40
2014,12,04,03,33,-1.40
2014,12,04,03,34,-1.40
2014,12,04,03,35,-1.40
2014,12,04,03,36,-1.40
2014,12,04,03,37,-1.40
2014,12,04,03,38,-1.40
2014,12,04,03,39,-1.40
2014,12,04,03,40,-1.40
2014,12,04,03,41,-1.40
2014,12,04,03,42,-1.40
2014,12,04,03,43,-1.40
2014,12,04,03,44,-1.40
2014,12,04,03,45,-1.40
2014,12,04,03,46,-1.40
2014,12,04,03,47,-1.40
2014,12,04,03,48,-1.40
2014,12,04,03,49,-1.40
2014,12,04,03,50,-1.40
2014,12,04,03,51,-1.40
2014,12,04,03,52,-1.30
2014,12,04,03,53,-1.40
2014,12,04,03,54,-1.40
2014,12,04,03,55,-1.40
2014,12,04,03,56,-1.40
2014,12,04,03,57,-1.40
2014,12,04,03,58,-1.40
2014,12,04,03,59,-1.40
2014,12,04,04,00,-1.40
2014,12,04,04,01,-1.40
2014,12,04,04,02,-1.40
2014,12,04,04,03,-1.40
2014,12,04,04,04,-1.30
2014,12,04,04,05,-1.40
2014,12,04,04,06,-1.30
2014,12,04,04,07,-1.40
2014,12,04,04,08,-1.30
2014,12,04,04,09,-1.30
2014,12,04,04,10,-1.30
2014,12,04,04,11,-1.30
2014,12,04,04,12,-1.30
2014,12,04,04,13,-1.30
2014,12,04,04,14,-1.30
2014,12,04,04,15,-1.30
2014,12,04,04,16,-1.30
2014,12,04,04,17,-1.30
2014,12,04,04,18,-1.30
2014,12,04,04,19,-1.30
2014,12,04,04,20,-1.30
2014,12,04,04,21,-1.30
2014,12,04,04,22,-1.30
2014,12,04,04,23,-1.30
2014,12,04,04,24,-1.30
2014,12,04,04,25,-1.30
2014,12,04,04,26,-1.30
2014,12,04,04,27,-1.30
2014,12,04,04,28,-1.30
2014,12,04,04,29,-1.30
2014,12,04,04,30,-1.30
2014,12,04,04,31,-1.30
2014,12,04,04,32,-1.30
2014,12,04,04,33,-1.30
2014,12,04,04,34,-1.30
2014,12,04,04,35,-1.30
2014,12,04,04,36,-1.30
2014,12,04,04,37,-1.30
2014,12,04,04,38,-1.30
2014,12,04,04,39,-1.30
2014,12,04,04,40,-1.40
2014,12,04,04,41,-1.40
2014,12,04,04,42,-1.40
2014,12,04,04,43,-1.40
2014,12,04,04,44,-1.40
2014,12,04,04,45,-1.40
2014,12,04,04,46,-1.40
2014,12,04,04,47,-1.40
2014,12,04,04,48,-1.40
2014,12,04,04,49,-1.40
2014,12,04,04,50,-1.40
2014,12,04,04,51,-1.40
2014,12,04,04,52,-1.40
2014,12,04,04,53,-1.40
2014,12,04,04,54,-1.40
2014,12,04,04,55,-1.40
2014,12,04,04,56,-1.40
2014,12,04,04,57,-1.40
2014,12,04,04,58,-1.40
2014,12,04,04,59,-1.40
2014,12,04,05,00,-1.40
2014,12,04,05,01,-1.40
2014,12,04,05,02,-1.40
2014,12,04,05,03,-1.40
2014,12,04,05,04,-1.40
2014,12,04,05,05,-1.40
2014,12,04,05,06,-1.40
2014,12,04,05,07,-1.40
2014,12,04,05,08,-1.30
2014,12,04,05,09,-1.30
2014,12,04,05,10,-1.30
2014,12,04,05,11,-1.30
2014,12,04,05,12,-1.30
2014,12,04,05,13,-1.30
2014,12,04,05,14,-1.30
2014,12,04,05,15,-1.30
2014,12,04,05,16,-1.30
2014,12,04,05,17,-1.30
2014,12,04,05,18,-1.30
2014,12,04,05,19,-1.30
2014,12,04,05,20,-1.30
2014,12,04,05,21,-1.30
2014,12,04,05,22,-1.30
2014,12,04,05,23,-1.30
2014,12,04,05,24,-1.30
2014,12,04,05,25,-1.30
2014,12,04,05,26,-1.30
2014,12,04,05,27,-1.30
2014,12,04,05,28,-1.30
2014,12,04,05,29,-1.30
2014,12,04,05,30,-1.40
2014,12,04,05,31,-1.40
2014,12,04,05,32,-1.40
2014,12,04,05,33,-1.40
2014,12,04,05,34,-1.40
2014,12,04,05,35,-1.40
2014,12,04,05,36,-1.40
2014,12,04,05,37,-1.40
2014,12,04,05,38,-1.40
2014,12,04,05,39,-1.40
2014,12,04,05,40,-1.40
2014,12,04,05,41,-1.40
2014,12,04,05,42,-1.40
2014,12,04,05,43,-1.40
2014,12,04,05,44,-1.40
2014,12,04,05,45,-1.40
2014,12,04,05,46,-1.40
2014,12,04,05,47,-1.40
2014,12,04,05,48,-1.40
2014,12,04,05,49,-1.40
2014,12,04,05,50,-1.40
2014,12,04,05,51,-1.40
2014,12,04,05,52,-1.40
2014,12,04,05,53,-1.40
2014,12,04,05,54,-1.40
2014,12,04,05,55,-1.40
2014,12,04,05,56,-1.40
2014,12,04,05,57,-1.40
2014,12,04,05,58,-1.40
2014,12,04,05,59,-1.40
2014,12,04,06,00,-1.40
2014,12,04,06,01,-1.30
2014,12,04,06,02,-1.30
2014,12,04,06,03,-1.30
2014,12,04,06,04,-1.30
2014,12,04,06,05,-1.30
2014,12,04,06,06,-1.30
2014,12,04,06,07,-1.30
2014,12,04,06,08,-1.30
2014,12,04,06,09,-1.30
2014,12,04,06,10,-1.30
2014,12,04,06,11,-1.30
2014,12,04,06,12,-1.40
2014,12,04,06,13,-1.40
2014,12,04,06,14,-1.40
2014,12,04,06,15,-1.40
2014,12,04,06,16,-1.40
2014,12,04,06,17,-1.40
2014,12,04,06,18,-1.40
2014,12,04,06,19,-1.40
2014,12,04,06,20,-1.40
2014,12,04,06,21,-1.40
2014,12,04,06,22,-1.40
2014,12,04,06,23,-1.40
2014,12,04,06,24,-1.40
2014,12,04,06,25,-1.40
2014,12,04,06,26,-1.50
2014,12,04,06,27,-1.50
2014,12,04,06,28,-1.50
2014,12,04,06,29,-1.50
2014,12,04,06,30,-1.50
2014,12,04,06,31,-1.50
2014,12,04,06,32,-1.50
2014,12,04,06,33,-1.50
2014,12,04,06,34,-1.50
2014,12,04,06,35,-1.50
2014,12,04,06,36,-1.50
2014,12,04,06,37,-1.50
2014,12,04,06,38,-1.50
2014,12,04,06,39,-1.50
2014,12,04,06,40,-1.50
2014,12,04,06,41,-1.50
2014,12,04,06,42,-1.40
2014,12,04,06,43,-1.40
2014,12,04,06,44,-1.40
2014,12,04,06,45,-1.40
2014,12,04,06,46,-1.40
2014,12,04,06,47,-1.40
2014,12,04,06,48,-1.40
2014,12,04,06,49,-1.40
2014,12,04,06,50,-1.40
2014,12,04,06,51,-1.30
2014,12,04,06,52,-1.30
2014,12,04,06,53,-1.30
2014,12,04,06,54,-1.30
2014,12,04,06,55,-1.30
2014,12,04,06,56,-1.30
2014,12,04,06,57,-1.30
2014,12,04,06,58,-1.30
2014,12,04,06,59,-1.30
2014,12,04,07,00,-1.30
2014,12,04,07,01,-1.30
2014,12,04,07,02,-1.20
2014,12,04,07,03,-1.20
2014,12,04,07,04,-1.10
2014,12,04,07,05,-1.10
2014,12,04,07,06,-1.10
2014,12,04,07,07,-1.10
2014,12,04,07,08,-1.00
2014,12,04,07,09,-1.00
2014,12,04,07,10,-1.00
2014,12,04,07,11,-1.00
2014,12,04,07,12,-1.00
2014,12,04,07,13,-1.00
2014,12,04,07,14,-1.00
2014,12,04,07,15,-1.00
2014,12,04,07,16,-1.00
2014,12,04,07,17,-1.00
2014,12,04,07,18,-1.00
2014,12,04,07,19,-1.00
2014,12,04,07,20,-1.10
2014,12,04,07,21,-1.10
2014,12,04,07,22,-1.10
2014,12,04,07,23,-1.10
2014,12,04,07,24,-1.10
2014,12,04,07,25,-1.10
2014,12,04,07,26,-1.10
2014,12,04,07,27,-1.10
2014,12,04,07,28,-1.10
2014,12,04,07,29,-1.10
2014,12,04,07,30,-1.10
2014,12,04,07,31,-1.10
2014,12,04,07,32,-1.10
2014,12,04,07,33,-1.10
2014,12,04,07,34,-1.10
2014,12,04,07,35,-1.10
2014,12,04,07,36,-1.10
2014,12,04,07,37,-1.10
2014,12,04,07,38,-1.10
2014,12,04,07,39,-1.20
2014,12,04,07,40,-1.20
2014,12,04,07,41,-1.20
2014,12,04,07,42,-1.20
2014,12,04,07,43,-1.20
2014,12,04,07,44,-1.30
2014,12,04,07,45,-1.30
2014,12,04,07,46,-1.30
2014,12,04,07,47,-1.30
2014,12,04,07,48,-1.30
2014,12,04,07,49,-1.30
2014,12,04,07,50,-1.30
2014,12,04,07,51,-1.30
2014,12,04,07,52,-1.30
2014,12,04,07,53,-1.30
2014,12,04,07,54,-1.30
2014,12,04,07,55,-1.30
2014,12,04,07,56,-1.30
2014,12,04,07,57,-1.30
2014,12,04,07,58,-1.30
2014,12,04,07,59,-1.30
2014,12,04,08,00,-1.30
2014,12,04,08,01,-1.30
2014,12,04,08,02,-1.30
2014,12,04,08,03,-1.30
2014,12,04,08,04,-1.30
2014,12,04,08,05,-1.30
2014,12,04,08,06,-1.30
2014,12,04,08,07,-1.30
2014,12,04,08,08,-1.30
2014,12,04,08,09,-1.30
2014,12,04,08,10,-1.30
2014,12,04,08,11,-1.30
2014,12,04,08,12,-1.30
2014,12,04,08,13,-1.20
2014,12,04,08,14,-1.20
2014,12,04,08,15,-1.10
2014,12,04,08,16,-1.10
2014,12,04,08,17,-1.00
2014,12,04,08,18,-1.00
2014,12,04,08,19,-0.90
2014,12,04,08,20,-0.90
2014,12,04,08,21,-0.90
2014,12,04,08,22,-0.90
2014,12,04,08,23,-0.90
2014,12,04,08,24,-0.90
2014,12,04,08,25,-0.90
2014,12,04,08,26,-0.90
2014,12,04,08,27,-0.90
2014,12,04,08,28,-0.90
2014,12,04,08,29,-0.90
2014,12,04,08,30,-1.00
2014,12,04,08,31,-1.00
2014,12,04,08,32,-1.00
2014,12,04,08,33,-1.00
2014,12,04,08,34,-1.00
2014,12,04,08,35,-1.00
2014,12,04,08,36,-1.10
2014,12,04,08,37,-1.10
2014,12,04,08,38,-1.10
2014,12,04,08,39,-1.10
2014,12,04,08,40,-1.20
2014,12,04,08,41,-1.20
2014,12,04,08,42,-1.20
2014,12,04,08,43,-1.20
2014,12,04,08,44,-1.20
2014,12,04,08,45,-1.20
2014,12,04,08,46,-1.20
2014,12,04,08,47,-1.20
2014,12,04,08,48,-1.20
2014,12,04,08,49,-1.20
2014,12,04,08,50,-1.20
2014,12,04,08,51,-1.20
2014,12,04,08,52,-1.20
2014,12,04,08,53,-1.10
2014,12,04,08,54,-1.10
2014,12,04,08,55,-1.10
2014,12,04,08,56,-1.10
2014,12,04,08,57,-1.10
2014,12,04,08,58,-1.10
2014,12,04,08,59,-1.00
2014,12,04,09,00,-1.00
2014,12,04,09,01,-1.00
2014,12,04,09,02,-1.00
2014,12,04,09,03,-0.90
2014,12,04,09,04,-0.90
2014,12,04,09,05,-0.90
2014,12,04,09,06,-0.90
2014,12,04,09,07,-0.80
2014,12,04,09,08,-0.80
2014,12,04,09,09,-0.80
2014,12,04,09,10,-0.80
2014,12,04,09,11,-0.80
2014,12,04,09,12,-0.80
2014,12,04,09,13,-0.80
2014,12,04,09,14,-0.70
2014,12,04,09,15,-0.70
2014,12,04,09,16,-0.70
2014,12,04,09,17,-0.70
2014,12,04,09,18,-0.70
2014,12,04,09,19,-0.60
2014,12,04,09,20,-0.60
2014,12,04,09,21,-0.60
2014,12,04,09,22,-0.60
2014,12,04,09,23,-0.50
2014,12,04,09,24,-0.50
2014,12,04,09,25,-0.40
2014,12,04,09,26,-0.40
2014,12,04,09,27,-0.40
2014,12,04,09,28,-0.30
2014,12,04,09,29,-0.30
2014,12,04,09,30,-0.30
2014,12,04,09,31,-0.30
2014,12,04,09,32,-0.20
2014,12,04,09,33,-0.20
2014,12,04,09,34,-0.10
2014,12,04,09,35,-0.10
2014,12,04,09,36,-0.10
2014,12,04,09,37,0.00
2014,12,04,09,38,0.00
2014,12,04,09,39,0.00
2014,12,04,09,40,0.10
2014,12,04,09,41,0.10
2014,12,04,09,42,0.10
2014,12,04,09,43,0.10
2014,12,04,09,44,0.20
2014,12,04,09,45,0.20
2014,12,04,09,46,0.20
2014,12,04,09,47,0.30
2014,12,04,09,48,0.30
2014,12,04,09,49,0.30
2014,12,04,09,50,0.30
2014,12,04,09,51,0.30
2014,12,04,09,52,0.40
2014,12,04,09,53,0.40
2014,12,04,09,54,0.40
2014,12,04,09,55,0.50
2014,12,04,09,56,0.50
2014,12,04,09,57,0.50
2014,12,04,09,58,0.60
2014,12,04,09,59,0.60
2014,12,04,10,00,0.60
2014,12,04,10,01,0.60
2014,12,04,10,02,0.70
2014,12,04,10,03,0.70
2014,12,04,10,04,0.70
2014,12,04,10,05,0.70
2014,12,04,10,06,0.80
2014,12,04,10,07,0.80
2014,12,04,10,08,0.80
2014,12,04,10,09,0.80
2014,12,04,10,10,0.90
2014,12,04,10,11,0.90
2014,12,04,10,12,1.00
2014,12,04,10,13,1.00
2014,12,04,10,14,1.00
2014,12,04,10,15,1.10
2014,12,04,10,16,1.20
2014,12,04,10,17,1.20
2014,12,04,10,18,1.20
2014,12,04,10,19,1.30
2014,12,04,10,20,1.30
2014,12,04,10,21,1.40
2014,12,04,10,22,1.40
2014,12,04,10,23,1.50
2014,12,04,10,24,1.50
2014,12,04,10,25,1.60
2014,12,04,10,26,1.60
2014,12,04,10,27,1.60
2014,12,04,10,28,1.70
2014,12,04,10,29,1.70
2014,12,04,10,30,1.80
2014,12,04,10,31,1.80
2014,12,04,10,32,1.80
2014,12,04,10,33,1.80
2014,12,04,10,34,1.80
2014,12,04,10,35,1.80
2014,12,04,10,36,1.80
2014,12,04,10,37,1.80
2014,12,04,10,38,1.80
2014,12,04,10,39,1.80
2014,12,04,10,40,1.80
2014,12,04,10,41,1.80
2014,12,04,10,42,1.80
2014,12,04,10,43,1.80
2014,12,04,10,44,1.80
2014,12,04,10,45,1.80
2014,12,04,10,46,1.90
2014,12,04,10,47,1.90
2014,12,04,10,48,1.90
2014,12,04,10,49,1.90
2014,12,04,10,50,2.00
2014,12,04,10,51,2.10
2014,12,04,10,52,2.10
2014,12,04,10,53,2.10
2014,12,04,10,54,2.10
2014,12,04,10,55,2.10
2014,12,04,10,56,2.10
2014,12,04,10,57,2.10
2014,12,04,10,58,2.10
2014,12,04,10,59,2.10
2014,12,04,11,00,2.10
2014,12,04,11,01,2.10
2014,12,04,11,02,2.00
2014,12,04,11,03,2.00
2014,12,04,11,04,2.00
2014,12,04,11,05,2.00
2014,12,04,11,06,2.00
2014,12,04,11,07,1.90
2014,12,04,11,08,1.90
2014,12,04,11,09,1.90
2014,12,04,11,10,1.90
2014,12,04,11,11,1.90
2014,12,04,11,12,1.90
2014,12,04,11,13,1.90
2014,12,04,11,14,1.90
2014,12,04,11,15,1.90
2014,12,04,11,16,1.80
2014,12,04,11,17,1.80
2014,12,04,11,18,1.80
2014,12,04,11,19,1.80
2014,12,04,11,20,1.80
2014,12,04,11,21,1.80
2014,12,04,11,22,1.80
2014,12,04,11,23,1.80
2014,12,04,11,24,1.90
2014,12,04,11,25,1.90
2014,12,04,11,26,1.90
2014,12,04,11,27,1.90
2014,12,04,11,28,1.90
2014,12,04,11,29,1.90
2014,12,04,11,30,1.90
2014,12,04,11,31,1.90
2014,12,04,11,32,1.90
2014,12,04,11,33,1.90
2014,12,04,11,34,1.90
2014,12,04,11,35,1.90
2014,12,04,11,36,1.90
2014,12,04,11,37,1.90
2014,12,04,11,38,1.90
2014,12,04,11,39,1.90
2014,12,04,11,40,1.90
2014,12,04,11,41,2.00
2014,12,04,11,42,2.00
2014,12,04,11,43,2.00
2014,12,04,11,44,2.00
2014,12,04,11,45,2.10
2014,12,04,11,46,2.10
2014,12,04,11,47,2.10
2014,12,04,11,48,2.10
2014,12,04,11,49,2.20
2014,12,04,11,50,2.20
2014,12,04,11,51,2.20
2014,12,04,11,52,2.20
2014,12,04,11,53,2.20
2014,12,04,11,54,2.20
2014,12,04,11,55,2.30
2014,12,04,11,56,2.30
2014,12,04,11,57,2.30
2014,12,04,11,58,2.30
2014,12,04,11,59,2.30
2014,12,04,12,00,2.30
2014,12,04,12,01,2.40
2014,12,04,12,02,2.40
2014,12,04,12,03,2.40
2014,12,04,12,04,2.40
2014,12,04,12,05,2.40
2014,12,04,12,06,2.50
2014,12,04,12,07,2.50
2014,12,04,12,08,2.50
2014,12,04,12,09,2.50
2014,12,04,12,10,2.60
2014,12,04,12,11,2.60
2014,12,04,12,12,2.60
2014,12,04,12,13,2.60
2014,12,04,12,14,2.70
2014,12,04,12,15,2.70
2014,12,04,12,16,2.70
2014,12,04,12,17,2.70
2014,12,04,12,18,2.70
2014,12,04,12,19,2.70
2014,12,04,12,20,2.70
2014,12,04,12,21,2.80
2014,12,04,12,22,2.80
2014,12,04,12,23,2.80
2014,12,04,12,24,2.80
2014,12,04,12,25,2.80
2014,12,04,12,26,2.80
2014,12,04,12,27,2.80
2014,12,04,12,28,2.90
2014,12,04,12,29,2.90
2014,12,04,12,30,2.90
2014,12,04,12,31,2.90
2014,12,04,12,32,2.90
2014,12,04,12,33,2.90
2014,12,04,12,34,3.00
2014,12,04,12,35,3.00
2014,12,04,12,36,3.00
2014,12,04,12,37,3.00
2014,12,04,12,38,3.00
2014,12,04,12,39,3.00
2014,12,04,12,40,3.10
2014,12,04,12,41,3.10
2014,12,04,12,42,3.10
2014,12,04,12,43,3.10
2014,12,04,12,44,3.10
2014,12,04,12,45,3.10
2014,12,04,12,46,3.10
2014,12,04,12,47,3.10
2014,12,04,12,48,3.20
2014,12,04,12,49,3.20
2014,12,04,12,50,3.20
2014,12,04,12,51,3.20
2014,12,04,12,52,3.20
2014,12,04,12,53,3.20
2014,12,04,12,54,3.20
2014,12,04,12,55,3.20
2014,12,04,12,56,3.20
2014,12,04,12,57,3.20
2014,12,04,12,58,3.20
2014,12,04,12,59,3.20
2014,12,04,13,00,3.30
2014,12,04,13,01,3.30
2014,12,04,13,02,3.30
2014,12,04,13,03,3.30
2014,12,04,13,04,3.30
2014,12,04,13,05,3.30
2014,12,04,13,06,3.30
2014,12,04,13,07,3.30
2014,12,04,13,08,3.30
2014,12,04,13,09,3.30
2014,12,04,13,10,3.30
2014,12,04,13,11,3.30
2014,12,04,13,12,3.30
2014,12,04,13,13,3.30
2014,12,04,13,14,3.30
2014,12,04,13,15,3.30
2014,12,04,13,16,3.30
2014,12,04,13,17,3.30
2014,12,04,13,18,3.40
2014,12,04,13,19,3.40
2014,12,04,13,20,3.40
2014,12,04,13,21,3.40
2014,12,04,13,22,3.40
2014,12,04,13,23,3.40
2014,12,04,13,24,3.40
2014,12,04,13,25,3.40
2014,12,04,13,26,3.40
2014,12,04,13,27,3.40
2014,12,04,13,28,3.50
2014,12,04,13,29,3.50
2014,12,04,13,30,3.50
2014,12,04,13,31,3.60
2014,12,04,13,32,3.60
2014,12,04,13,33,3.60
2014,12,04,13,34,3.60
2014,12,04,13,35,3.70
2014,12,04,13,36,3.70
2014,12,04,13,37,3.70
2014,12,04,13,38,3.70
2014,12,04,13,39,3.70
2014,12,04,13,40,3.70
2014,12,04,13,41,3.70
2014,12,04,13,42,3.70
2014,12,04,13,43,3.70
2014,12,04,13,44,3.70
2014,12,04,13,45,3.70
2014,12,04,13,46,3.70
2014,12,04,13,47,3.70
2014,12,04,13,48,3.70
2014,12,04,13,49,3.70
2014,12,04,13,50,3.70
2014,12,04,13,51,3.80
2014,12,04,13,52,3.80
2014,12,04,13,53,3.80
2014,12,04,13,54,3.80
2014,12,04,13,55,3.80
2014,12,04,13,56,3.80
2014,12,04,13,57,3.80
2014,12,04,13,58,3.80
2014,12,04,13,59,3.70
2014,12,04,14,00,3.70
2014,12,04,14,01,3.70
2014,12,04,14,02,3.70
2014,12,04,14,03,3.70
2014,12,04,14,04,3.70
2014,12,04,14,05,3.70
2014,12,04,14,06,3.70
2014,12,04,14,07,3.70
2014,12,04,14,08,3.70
2014,12,04,14,09,3.70
2014,12,04,14,10,3.70
2014,12,04,14,11,3.70
2014,12,04,14,12,3.70
2014,12,04,14,13,3.70
2014,12,04,14,14,3.80
2014,12,04,14,15,3.80
2014,12,04,14,16,3.80
2014,12,04,14,17,3.80
2014,12,04,14,18,3.80
2014,12,04,14,19,3.80
2014,12,04,14,20,3.80
2014,12,04,14,21,3.80
2014,12,04,14,22,3.80
2014,12,04,14,23,3.80
2014,12,04,14,24,3.80
2014,12,04,14,25,3.80
2014,12,04,14,26,3.80
2014,12,04,14,27,3.80
2014,12,04,14,28,3.80
2014,12,04,14,29,3.80
2014,12,04,14,30,3.80
2014,12,04,14,31,3.80
2014,12,04,14,32,3.80
2014,12,04,14,33,3.80
2014,12,04,14,34,3.80
2014,12,04,14,35,3.80
2014,12,04,14,36,3.80
2014,12,04,14,37,3.80
2014,12,04,14,38,3.80
2014,12,04,14,39,3.80
2014,12,04,14,40,3.80
2014,12,04,14,41,3.80
2014,12,04,14,42,3.80
2014,12,04,14,43,3.80
2014,12,04,14,44,3.80
2014,12,04,14,45,3.80
2014,12,04,14,46,3.80
2014,12,04,14,47,3.80
2014,12,04,14,48,3.70
2014,12,04,14,49,3.70
2014,12,04,14,50,3.70
2014,12,04,14,51,3.70
2014,12,04,14,52,3.70
2014,12,04,14,53,3.70
2014,12,04,14,54,3.70
2014,12,04,14,55,3.70
2014,12,04,14,56,3.70
2014,12,04,14,57,3.70
2014,12,04,14,58,3.70
2014,12,04,14,59,3.70
2014,12,04,15,00,3.70
2014,12,04,15,01,3.70
2014,12,04,15,02,3.70
2014,12,04,15,03,3.70
2014,12,04,15,04,3.70
2014,12,04,15,05,3.70
2014,12,04,15,06,3.70
2014,12,04,15,07,3.70
2014,12,04,15,08,3.70
2014,12,04,15,09,3.70
2014,12,04,15,10,3.70
2014,12,04,15,11,3.60
2014,12,04,15,12,3.60
2014,12,04,15,13,3.60
2014,12,04,15,14,3.60
2014,12,04,15,15,3.60
2014,12,04,15,16,3.60
2014,12,04,15,17,3.60
2014,12,04,15,18,3.60
2014,12,04,15,19,3.60
2014,12,04,15,20,3.60
2014,12,04,15,21,3.60
2014,12,04,15,22,3.60
2014,12,04,15,23,3.60
2014,12,04,15,24,3.60
2014,12,04,15,25,3.50
2014,12,04,15,26,3.50
2014,12,04,15,27,3.50
2014,12,04,15,28,3.50
2014,12,04,15,29,3.50
2014,12,04,15,30,3.50
2014,12,04,15,31,3.50
2014,12,04,15,32,3.50
2014,12,04,15,33,3.50
2014,12,04,15,34,3.50
2014,12,04,15,35,3.40
2014,12,04,15,36,3.40
2014,12,04,15,37,3.40
2014,12,04,15,38,3.40
2014,12,04,15,39,3.40
2014,12,04,15,40,3.40
2014,12,04,15,41,3.40
2014,12,04,15,42,3.40
2014,12,04,15,43,3.40
2014,12,04,15,44,3.40
2014,12,04,15,45,3.40
2014,12,04,15,46,3.40
2014,12,04,15,47,3.40
2014,12,04,15,48,3.40
2014,12,04,15,49,3.40
2014,12,04,15,50,3.40
2014,12,04,15,51,3.40
2014,12,04,15,52,3.40
2014,12,04,15,53,3.40
2014,12,04,15,54,3.30
2014,12,04,15,55,3.30
2014,12,04,15,56,3.30
2014,12,04,15,57,3.30
2014,12,04,15,58,3.30
2014,12,04,15,59,3.30
2014,12,04,16,00,3.30
2014,12,04,16,01,3.30
2014,12,04,16,02,3.30
2014,12,04,16,03,3.30
2014,12,04,16,04,3.30
2014,12,04,16,05,3.30
2014,12,04,16,06,3.30
2014,12,04,16,07,3.30
2014,12,04,16,08,3.30
2014,12,04,16,09,3.30
2014,12,04,16,10,3.20
2014,12,04,16,11,3.30
2014,12,04,16,12,3.20
2014,12,04,16,13,3.20
2014,12,04,16,14,3.20
2014,12,04,16,15,3.20
2014,12,04,16,16,3.20
2014,12,04,16,17,3.20
2014,12,04,16,18,3.20
2014,12,04,16,19,3.20
2014,12,04,16,20,3.20
2014,12,04,16,21,3.20
2014,12,04,16,22,3.20
2014,12,04,16,23,3.20
2014,12,04,16,24,3.20
2014,12,04,16,25,3.10
2014,12,04,16,26,3.10
2014,12,04,16,27,3.10
2014,12,04,16,28,3.10
2014,12,04,16,29,3.10
2014,12,04,16,30,3.10
2014,12,04,16,31,3.10
2014,12,04,16,32,3.10
2014,12,04,16,33,3.10
2014,12,04,16,34,3.10
2014,12,04,16,35,3.10
2014,12,04,16,36,3.10
2014,12,04,16,37,3.00
2014,12,04,16,38,3.00
2014,12,04,16,39,3.00
2014,12,04,16,40,3.00
2014,12,04,16,41,3.00
2014,12,04,16,42,2.90
2014,12,04,16,43,2.90
2014,12,04,16,44,2.90
2014,12,04,16,45,2.90
2014,12,04,16,46,2.90
2014,12,04,16,47,2.90
2014,12,04,16,48,2.90
2014,12,04,16,49,2.80
2014,12,04,16,50,2.80
2014,12,04,16,51,2.80
2014,12,04,16,52,2.80
2014,12,04,16,53,2.80
2014,12,04,16,54,2.80
2014,12,04,16,55,2.80
2014,12,04,16,56,2.80
2014,12,04,16,57,2.80
2014,12,04,16,58,2.80
2014,12,04,16,59,2.80
2014,12,04,17,00,2.70
2014,12,04,17,01,2.70
2014,12,04,17,02,2.70
2014,12,04,17,03,2.70
2014,12,04,17,04,2.70
2014,12,04,17,05,2.70
2014,12,04,17,06,2.70
2014,12,04,17,07,2.70
2014,12,04,17,08,2.70
2014,12,04,17,09,2.70
2014,12,04,17,10,2.70
2014,12,04,17,11,2.70
2014,12,04,17,12,2.60
2014,12,04,17,13,2.60
2014,12,04,17,14,2.70
2014,12,04,17,15,2.60
2014,12,04,17,16,2.60
2014,12,04,17,17,2.60
2014,12,04,17,18,2.60
2014,12,04,17,19,2.60
2014,12,04,17,20,2.60
2014,12,04,17,21,2.60
2014,12,04,17,22,2.60
2014,12,04,17,23,2.60
2014,12,04,17,24,2.60
2014,12,04,17,25,2.60
2014,12,04,17,26,2.60
2014,12,04,17,27,2.60
2014,12,04,17,28,2.60
2014,12,04,17,29,2.60
2014,12,04,17,30,2.60
2014,12,04,17,31,2.60
2014,12,04,17,32,2.60
2014,12,04,17,33,2.60
2014,12,04,17,34,2.60
2014,12,04,17,35,2.60
2014,12,04,17,36,2.60
2014,12,04,17,37,2.60
2014,12,04,17,38,2.60
2014,12,04,17,39,2.60
2014,12,04,17,40,2.60
2014,12,04,17,41,2.60